Time,TemperatureF,DewpointF,PressureIn,WindDirection,WindDirectionDegrees,WindSpeedMPH,WindSpeedGustMPH,Humidity,HourlyPrecipIn,Conditions,Clouds,dailyrainin,SoftwareType,DateUTC
2013-05-21 00:01:00,52.7,47.7,29.44,North,0,0.0,0.0,83,0.01,,,0.00,WUHU216HW,2013-05-21 07:01:00,
2013-05-21 00:06:00,52.6,47.3,29.44,North,0,0.0,0.0,82,0.01,,,0.00,WUHU216HW,2013-05-21 07:06:00,
2013-05-21 00:11:00,52.6,47.3,29.44,North,0,0.0,0.0,82,0.01,,,0.00,WUHU216HW,2013-05-21 07:11:00,
2013-05-21 00:16:00,52.6,47.5,29.43,North,0,0.0,0.0,83,0.01,,,0.00,WUHU216HW,2013-05-21 07:16:00,
2013-05-21 00:21:00,52.4,47.7,29.43,North,0,0.0,0.0,84,0.01,,,0.00,WUHU216HW,2013-05-21 07:21:00,
2013-05-21 00:26:00,52.2,47.5,29.44,North,0,0.0,0.0,84,0.00,,,0.00,WUHU216HW,2013-05-21 07:26:00,
2013-05-21 00:31:00,52.2,47.2,29.44,North,0,0.0,0.0,83,0.00,,,0.00,WUHU216HW,2013-05-21 07:31:00,
2013-05-21 00:36:00,52.4,47.3,29.44,North,0,0.0,0.0,83,0.01,,,0.01,WUHU216HW,2013-05-21 07:36:00,
2013-05-21 00:41:00,52.4,47.7,29.44,North,0,0.0,0.0,84,0.01,,,0.01,WUHU216HW,2013-05-21 07:41:00,
2013-05-21 00:46:00,52.2,47.5,29.43,North,0,0.0,0.0,84,0.02,,,0.02,WUHU216HW,2013-05-21 07:46:00,
2013-05-21 00:51:00,52.2,47.5,29.44,North,0,0.0,0.0,84,0.02,,,0.02,WUHU216HW,2013-05-21 07:51:00,
2013-05-21 00:56:00,52.0,47.4,29.43,North,0,0.0,0.0,84,0.03,,,0.03,WUHU216HW,2013-05-21 07:56:00,
2013-05-21 01:01:00,52.0,47.4,29.43,North,0,0.0,0.0,84,0.03,,,0.03,WUHU216HW,2013-05-21 08:01:00,
2013-05-21 01:06:00,52.2,47.5,29.43,North,0,0.0,0.0,84,0.04,,,0.04,WUHU216HW,2013-05-21 08:06:00,
2013-05-21 01:11:00,52.2,47.8,29.43,North,0,0.0,0.0,85,0.05,,,0.05,WUHU216HW,2013-05-21 08:11:00,
2013-05-21 01:16:00,52.2,47.8,29.43,North,0,0.0,0.0,85,0.06,,,0.06,WUHU216HW,2013-05-21 08:16:00,
2013-05-21 01:21:00,52.2,47.8,29.43,North,0,0.0,0.0,85,0.06,,,0.06,WUHU216HW,2013-05-21 08:21:00,
2013-05-21 01:26:00,52.0,47.6,29.43,North,0,0.0,0.0,85,0.07,,,0.07,WUHU216HW,2013-05-21 08:26:00,
2013-05-21 01:31:00,51.8,47.7,29.43,North,0,0.0,0.0,86,0.08,,,0.08,WUHU216HW,2013-05-21 08:31:00,
2013-05-21 01:36:00,51.7,47.5,29.42,North,0,0.0,0.0,86,0.07,,,0.08,WUHU216HW,2013-05-21 08:36:00,
2013-05-21 01:41:00,51.7,47.3,29.42,North,0,0.0,0.0,85,0.08,,,0.09,WUHU216HW,2013-05-21 08:41:00,
2013-05-21 01:46:00,51.5,47.1,29.42,North,0,0.0,0.0,85,0.08,,,0.10,WUHU216HW,2013-05-21 08:46:00,
2013-05-21 01:51:00,51.3,46.9,29.42,North,0,0.0,0.0,85,0.08,,,0.10,WUHU216HW,2013-05-21 08:51:00,
2013-05-21 01:56:00,50.9,46.5,29.42,North,0,0.0,0.0,85,0.08,,,0.11,WUHU216HW,2013-05-21 08:56:00,
2013-05-21 02:01:00,50.8,46.6,29.42,North,0,0.0,0.0,86,0.08,,,0.12,WUHU216HW,2013-05-21 09:01:00,
2013-05-21 02:06:00,50.6,46.4,29.42,North,0,0.0,0.0,86,0.09,,,0.14,WUHU216HW,2013-05-21 09:06:00,
2013-05-21 02:11:00,50.4,46.3,29.42,North,0,0.0,0.0,86,0.10,,,0.15,WUHU216HW,2013-05-21 09:11:00,
2013-05-21 02:16:00,50.0,45.9,29.42,North,0,0.0,0.0,86,0.10,,,0.16,WUHU216HW,2013-05-21 09:16:00,
2013-05-21 02:21:00,50.0,45.9,29.41,North,0,0.0,0.0,86,0.09,,,0.16,WUHU216HW,2013-05-21 09:21:00,
2013-05-21 02:26:00,49.7,45.6,29.41,North,0,0.0,0.0,86,0.10,,,0.17,WUHU216HW,2013-05-21 09:26:00,
2013-05-21 02:31:00,49.3,45.3,29.41,North,0,0.0,0.0,86,0.10,,,0.19,WUHU216HW,2013-05-21 09:31:00,
2013-05-21 02:36:00,49.3,45.9,29.41,North,0,0.0,0.0,88,0.10,,,0.19,WUHU216HW,2013-05-21 09:36:00,
2013-05-21 02:41:00,49.1,45.4,29.41,North,0,0.0,0.0,87,0.10,,,0.19,WUHU216HW,2013-05-21 09:41:00,
2013-05-21 02:46:00,49.1,45.4,29.40,North,0,0.0,0.0,87,0.09,,,0.19,WUHU216HW,2013-05-21 09:46:00,
2013-05-21 02:51:00,49.0,45.3,29.40,North,0,0.0,0.0,87,0.09,,,0.19,WUHU216HW,2013-05-21 09:51:00,
2013-05-21 02:56:00,49.0,45.3,29.40,North,0,0.0,0.0,87,0.08,,,0.21,WUHU216HW,2013-05-21 09:56:00,
2013-05-21 03:01:00,49.0,44.9,29.40,North,0,0.0,0.0,86,0.07,,,0.21,WUHU216HW,2013-05-21 10:01:00,
2013-05-21 03:06:00,49.0,45.3,29.40,North,0,0.0,0.0,87,0.06,,,0.21,WUHU216HW,2013-05-21 10:06:00,
2013-05-21 03:11:00,49.0,45.3,29.39,North,0,0.0,0.0,87,0.05,,,0.21,WUHU216HW,2013-05-21 10:11:00,
2013-05-21 03:16:00,48.8,45.1,29.39,North,0,0.0,0.0,87,0.04,,,0.21,WUHU216HW,2013-05-21 10:16:00,
2013-05-21 03:21:00,48.8,45.1,29.39,North,0,0.0,0.0,87,0.03,,,0.21,WUHU216HW,2013-05-21 10:21:00,
2013-05-21 03:26:00,48.6,44.9,29.39,North,0,0.0,0.0,87,0.03,,,0.21,WUHU216HW,2013-05-21 10:26:00,
2013-05-21 03:31:00,48.8,45.1,29.39,North,0,0.0,0.0,87,0.02,,,0.21,WUHU216HW,2013-05-21 10:31:00,
2013-05-21 03:36:00,48.8,45.1,29.38,North,0,0.0,0.0,87,0.02,,,0.21,WUHU216HW,2013-05-21 10:36:00,
2013-05-21 03:41:00,48.6,44.9,29.39,North,0,0.0,0.0,87,0.01,,,0.21,WUHU216HW,2013-05-21 10:41:00,
2013-05-21 03:46:00,48.6,44.9,29.38,North,0,0.0,0.0,87,0.01,,,0.21,WUHU216HW,2013-05-21 10:46:00,
2013-05-21 03:51:00,48.4,44.4,29.38,North,0,0.0,0.0,86,0.01,,,0.21,WUHU216HW,2013-05-21 10:51:00,
2013-05-21 03:56:00,48.2,44.3,29.39,North,0,0.0,0.0,86,0.00,,,0.21,WUHU216HW,2013-05-21 10:56:00,
2013-05-21 04:01:00,48.2,44.3,29.39,North,0,0.0,0.0,86,0.00,,,0.21,WUHU216HW,2013-05-21 11:01:00,
2013-05-21 04:06:00,48.1,44.1,29.38,North,0,0.0,0.0,86,0.00,,,0.21,WUHU216HW,2013-05-21 11:06:00,
2013-05-21 04:11:00,47.9,44.2,29.38,North,0,0.0,0.0,87,0.01,,,0.21,WUHU216HW,2013-05-21 11:11:00,
2013-05-21 04:16:00,47.7,44.0,29.38,North,0,0.0,0.0,87,0.01,,,0.21,WUHU216HW,2013-05-21 11:16:00,
2013-05-21 04:21:00,47.5,43.8,29.38,North,0,0.0,0.0,87,0.01,,,0.21,WUHU216HW,2013-05-21 11:21:00,
2013-05-21 04:26:00,47.5,43.8,29.38,North,0,0.0,0.0,87,0.01,,,0.21,WUHU216HW,2013-05-21 11:26:00,
2013-05-21 04:31:00,47.5,43.8,29.38,North,0,0.0,0.0,87,0.01,,,0.21,WUHU216HW,2013-05-21 11:31:00,
2013-05-21 04:36:00,47.3,43.7,29.38,North,0,0.0,0.0,87,0.01,,,0.21,WUHU216HW,2013-05-21 11:36:00,
2013-05-21 04:41:00,47.3,44.0,29.38,North,0,0.0,0.0,88,0.01,,,0.21,WUHU216HW,2013-05-21 11:41:00,
2013-05-21 04:46:00,47.2,43.6,29.38,North,0,0.0,0.0,87,0.01,,,0.21,WUHU216HW,2013-05-21 11:46:00,
2013-05-21 04:51:00,47.2,43.8,29.38,North,0,0.0,0.0,88,0.01,,,0.21,WUHU216HW,2013-05-21 11:51:00,
2013-05-21 04:56:00,47.2,43.8,29.38,North,0,0.0,0.0,88,0.01,,,0.21,WUHU216HW,2013-05-21 11:56:00,
2013-05-21 05:01:00,47.2,43.8,29.38,North,0,0.0,0.0,88,0.01,,,0.21,WUHU216HW,2013-05-21 12:01:00,
2013-05-21 05:06:00,47.2,43.8,29.38,North,0,0.0,0.0,88,0.01,,,0.21,WUHU216HW,2013-05-21 12:06:00,
2013-05-21 05:11:00,47.2,43.8,29.38,North,0,0.0,0.0,88,0.00,,,0.21,WUHU216HW,2013-05-21 12:11:00,
2013-05-21 05:16:00,47.2,43.8,29.38,North,0,0.0,0.0,88,0.00,,,0.21,WUHU216HW,2013-05-21 12:16:00,
2013-05-21 05:21:00,47.3,44.0,29.38,North,0,0.0,0.0,88,0.00,,,0.21,WUHU216HW,2013-05-21 12:21:00,
2013-05-21 05:26:00,47.2,43.8,29.38,North,0,0.0,0.0,88,0.00,,,0.21,WUHU216HW,2013-05-21 12:26:00,
2013-05-21 05:31:00,47.2,43.8,29.38,North,0,0.0,0.0,88,0.00,,,0.21,WUHU216HW,2013-05-21 12:31:00,
2013-05-21 05:36:00,47.0,43.7,29.38,North,0,0.0,0.0,88,0.00,,,0.21,WUHU216HW,2013-05-21 12:36:00,
2013-05-21 05:41:00,47.0,43.7,29.38,North,0,0.0,0.0,88,0.00,,,0.21,WUHU216HW,2013-05-21 12:41:00,
2013-05-21 05:46:00,47.0,43.7,29.37,North,0,0.0,0.0,88,0.00,,,0.21,WUHU216HW,2013-05-21 12:46:00,
2013-05-21 05:51:00,46.8,43.5,29.37,North,0,0.0,0.0,88,0.00,,,0.21,WUHU216HW,2013-05-21 12:51:00,
2013-05-21 05:56:00,46.8,43.5,29.38,North,0,0.0,0.0,88,0.00,,,0.21,WUHU216HW,2013-05-21 12:56:00,
2013-05-21 06:01:00,46.8,43.5,29.37,North,0,0.0,0.0,88,0.00,,,0.21,WUHU216HW,2013-05-21 13:01:00,
2013-05-21 06:06:00,47.0,43.7,29.37,North,0,0.0,0.0,88,0.00,,,0.21,WUHU216HW,2013-05-21 13:06:00,
2013-05-21 06:11:00,47.0,43.7,29.37,North,0,0.0,0.0,88,0.00,,,0.21,WUHU216HW,2013-05-21 13:11:00,
2013-05-21 06:16:00,46.8,43.5,29.37,North,0,0.0,0.0,88,0.00,,,0.21,WUHU216HW,2013-05-21 13:16:00,
2013-05-21 06:21:00,47.0,43.7,29.37,North,0,0.0,0.0,88,0.00,,,0.21,WUHU216HW,2013-05-21 13:21:00,
2013-05-21 06:26:00,47.0,43.7,29.37,North,0,0.0,0.0,88,0.00,,,0.21,WUHU216HW,2013-05-21 13:26:00,
2013-05-21 06:31:00,47.0,43.7,29.37,North,0,0.0,0.0,88,0.00,,,0.21,WUHU216HW,2013-05-21 13:31:00,
2013-05-21 06:36:00,47.0,43.7,29.37,North,0,0.0,0.0,88,0.00,,,0.21,WUHU216HW,2013-05-21 13:36:00,
2013-05-21 06:41:00,47.2,43.8,29.37,North,0,0.0,0.0,88,0.00,,,0.21,WUHU216HW,2013-05-21 13:41:00,
2013-05-21 06:46:00,47.2,43.8,29.37,North,0,0.0,0.0,88,0.00,,,0.21,WUHU216HW,2013-05-21 13:46:00,
2013-05-21 06:51:00,47.2,43.8,29.37,North,0,0.0,0.0,88,0.00,,,0.21,WUHU216HW,2013-05-21 13:51:00,
2013-05-21 06:56:00,47.2,43.8,29.37,North,0,0.0,0.0,88,0.00,,,0.21,WUHU216HW,2013-05-21 13:56:00,
2013-05-21 07:01:00,47.2,43.8,29.37,North,0,0.0,0.0,88,0.00,,,0.21,WUHU216HW,2013-05-21 14:01:00,
2013-05-21 07:06:00,47.3,44.4,29.36,North,0,0.0,0.0,89,0.00,,,0.21,WUHU216HW,2013-05-21 14:06:00,
2013-05-21 07:11:00,47.5,44.2,29.36,North,0,0.0,0.0,88,0.00,,,0.21,WUHU216HW,2013-05-21 14:11:00,
2013-05-21 07:16:00,47.5,44.5,29.36,North,0,0.0,0.0,89,0.00,,,0.21,WUHU216HW,2013-05-21 14:16:00,
2013-05-21 07:21:00,47.9,44.6,29.36,North,0,0.0,0.0,88,0.00,,,0.21,WUHU216HW,2013-05-21 14:21:00,
2013-05-21 07:26:00,47.9,44.6,29.36,North,0,0.0,0.0,88,0.00,,,0.21,WUHU216HW,2013-05-21 14:26:00,
2013-05-21 07:31:00,47.9,44.6,29.36,North,0,0.0,0.0,88,0.00,,,0.21,WUHU216HW,2013-05-21 14:31:00,
2013-05-21 07:36:00,47.9,44.6,29.36,North,0,0.0,0.0,88,0.00,,,0.21,WUHU216HW,2013-05-21 14:36:00,
2013-05-21 07:41:00,47.7,44.4,29.36,North,0,0.0,0.0,88,0.00,,,0.21,WUHU216HW,2013-05-21 14:41:00,
2013-05-21 07:46:00,47.7,44.4,29.36,North,0,0.0,0.0,88,0.00,,,0.21,WUHU216HW,2013-05-21 14:46:00,
2013-05-21 07:51:00,47.7,44.4,29.35,North,0,0.0,0.0,88,0.00,,,0.21,WUHU216HW,2013-05-21 14:51:00,
2013-05-21 07:56:00,47.7,44.4,29.35,North,0,0.0,0.0,88,0.00,,,0.21,WUHU216HW,2013-05-21 14:56:00,
2013-05-21 08:01:00,47.9,44.6,29.35,North,0,0.0,0.0,88,0.00,,,0.21,WUHU216HW,2013-05-21 15:01:00,
2013-05-21 08:06:00,47.9,44.6,29.35,North,0,0.0,0.0,88,0.00,,,0.21,WUHU216HW,2013-05-21 15:06:00,
2013-05-21 08:11:00,47.7,44.4,29.35,North,0,0.0,0.0,88,0.00,,,0.21,WUHU216HW,2013-05-21 15:11:00,
2013-05-21 08:16:00,47.7,44.4,29.35,North,0,0.0,0.0,88,0.00,,,0.21,WUHU216HW,2013-05-21 15:16:00,
2013-05-21 08:21:00,47.9,44.6,29.35,North,0,0.0,0.0,88,0.00,,,0.21,WUHU216HW,2013-05-21 15:21:00,
2013-05-21 08:26:00,47.9,44.6,29.35,North,0,0.0,0.0,88,0.00,,,0.21,WUHU216HW,2013-05-21 15:26:00,
2013-05-21 08:31:00,48.1,44.7,29.34,North,0,0.0,0.0,88,0.00,,,0.21,WUHU216HW,2013-05-21 15:31:00,
2013-05-21 08:36:00,48.2,44.9,29.34,North,0,0.0,0.0,88,0.00,,,0.21,WUHU216HW,2013-05-21 15:36:00,
2013-05-21 08:41:00,48.4,45.1,29.34,North,0,0.0,0.0,88,0.00,,,0.21,WUHU216HW,2013-05-21 15:41:00,
2013-05-21 08:46:00,48.6,45.2,29.34,North,0,0.0,0.0,88,0.00,,,0.21,WUHU216HW,2013-05-21 15:46:00,
2013-05-21 08:51:00,48.6,45.2,29.34,North,0,0.0,0.0,88,0.00,,,0.21,WUHU216HW,2013-05-21 15:51:00,
2013-05-21 08:56:00,48.6,45.2,29.34,North,0,0.0,0.0,88,0.00,,,0.21,WUHU216HW,2013-05-21 15:56:00,
2013-05-21 09:01:00,48.8,45.4,29.34,North,0,0.0,0.0,88,0.00,,,0.21,WUHU216HW,2013-05-21 16:01:00,
2013-05-21 09:06:00,49.0,45.5,29.34,North,0,0.0,0.0,88,0.00,,,0.21,WUHU216HW,2013-05-21 16:06:00,
2013-05-21 09:11:00,48.8,45.1,29.33,North,0,0.0,0.0,87,0.00,,,0.21,WUHU216HW,2013-05-21 16:11:00,
2013-05-21 09:16:00,48.8,45.1,29.33,North,0,0.0,0.0,87,0.00,,,0.21,WUHU216HW,2013-05-21 16:16:00,
2013-05-21 09:21:00,48.6,44.9,29.33,North,0,0.0,0.0,87,0.00,,,0.21,WUHU216HW,2013-05-21 16:21:00,
2013-05-21 09:26:00,48.6,45.2,29.33,North,0,0.0,0.0,88,0.00,,,0.21,WUHU216HW,2013-05-21 16:26:00,
2013-05-21 09:31:00,48.6,45.2,29.33,North,0,0.0,0.0,88,0.00,,,0.21,WUHU216HW,2013-05-21 16:31:00,
2013-05-21 09:36:00,48.6,45.2,29.33,North,0,0.0,0.0,88,0.00,,,0.21,WUHU216HW,2013-05-21 16:36:00,
2013-05-21 09:41:00,48.6,45.2,29.33,North,0,0.0,0.0,88,0.00,,,0.21,WUHU216HW,2013-05-21 16:41:00,
2013-05-21 09:46:00,48.6,45.2,29.33,North,0,0.0,0.0,88,0.00,,,0.21,WUHU216HW,2013-05-21 16:46:00,
2013-05-21 09:51:00,48.8,45.1,29.33,North,0,0.0,0.0,87,0.00,,,0.21,WUHU216HW,2013-05-21 16:51:00,
2013-05-21 09:56:00,48.8,45.1,29.33,North,0,0.0,0.0,87,0.00,,,0.21,WUHU216HW,2013-05-21 16:56:00,
2013-05-21 10:01:00,49.1,45.4,29.33,North,0,0.0,0.0,87,0.00,,,0.21,WUHU216HW,2013-05-21 17:01:00,
2013-05-21 10:06:00,49.1,45.4,29.33,North,0,0.0,0.0,87,0.00,,,0.21,WUHU216HW,2013-05-21 17:06:00,
2013-05-21 10:11:00,49.0,45.5,29.33,North,0,0.0,0.0,88,0.00,,,0.21,WUHU216HW,2013-05-21 17:11:00,
2013-05-21 10:16:00,48.6,45.2,29.33,North,0,0.0,0.0,88,0.00,,,0.21,WUHU216HW,2013-05-21 17:16:00,
2013-05-21 10:21:00,48.6,45.2,29.33,North,0,0.0,0.0,88,0.00,,,0.21,WUHU216HW,2013-05-21 17:21:00,
2013-05-21 10:26:00,48.6,45.2,29.33,North,0,0.0,0.0,88,0.00,,,0.21,WUHU216HW,2013-05-21 17:26:00,
2013-05-21 10:31:00,49.0,45.5,29.32,North,0,0.0,0.0,88,0.00,,,0.21,WUHU216HW,2013-05-21 17:31:00,
2013-05-21 10:36:00,49.1,45.7,29.32,North,0,0.0,0.0,88,0.00,,,0.21,WUHU216HW,2013-05-21 17:36:00,
2013-05-21 10:41:00,49.3,45.9,29.33,North,0,0.0,0.0,88,0.00,,,0.21,WUHU216HW,2013-05-21 17:41:00,
2013-05-21 10:46:00,49.3,45.9,29.33,North,0,0.0,0.0,88,0.00,,,0.21,WUHU216HW,2013-05-21 17:46:00,
2013-05-21 10:51:00,49.5,46.1,29.32,North,0,0.0,0.0,88,0.00,,,0.21,WUHU216HW,2013-05-21 17:51:00,
2013-05-21 10:56:00,49.7,46.3,29.32,North,0,0.0,0.0,88,0.00,,,0.21,WUHU216HW,2013-05-21 17:56:00,
2013-05-21 11:01:00,50.0,46.5,29.32,North,0,0.0,0.0,88,0.00,,,0.21,WUHU216HW,2013-05-21 18:01:00,
2013-05-21 11:06:00,50.2,46.7,29.32,North,0,0.0,0.0,88,0.00,,,0.21,WUHU216HW,2013-05-21 18:06:00,
2013-05-21 11:11:00,50.2,46.5,29.32,North,0,0.0,0.0,87,0.00,,,0.21,WUHU216HW,2013-05-21 18:11:00,
2013-05-21 11:16:00,50.2,46.5,29.31,North,0,0.0,0.0,87,0.00,,,0.21,WUHU216HW,2013-05-21 18:16:00,
2013-05-21 11:21:00,50.2,46.5,29.31,North,0,0.0,0.0,87,0.00,,,0.21,WUHU216HW,2013-05-21 18:21:00,
2013-05-21 11:26:00,50.2,46.1,29.32,North,0,0.0,0.0,86,0.00,,,0.21,WUHU216HW,2013-05-21 18:26:00,
2013-05-21 11:31:00,50.0,45.9,29.32,North,0,0.0,0.0,86,0.00,,,0.21,WUHU216HW,2013-05-21 18:31:00,
2013-05-21 11:36:00,50.0,46.3,29.32,North,0,0.0,0.0,87,0.00,,,0.21,WUHU216HW,2013-05-21 18:36:00,
2013-05-21 11:41:00,50.0,46.3,29.32,North,0,0.0,0.0,87,0.00,,,0.21,WUHU216HW,2013-05-21 18:41:00,
2013-05-21 11:46:00,50.0,46.3,29.32,North,0,0.0,0.0,87,0.00,,,0.21,WUHU216HW,2013-05-21 18:46:00,
2013-05-21 11:51:00,50.2,46.5,29.32,North,0,0.0,0.0,87,0.00,,,0.21,WUHU216HW,2013-05-21 18:51:00,
2013-05-21 11:56:00,50.4,46.6,29.32,North,0,0.0,0.0,87,0.00,,,0.21,WUHU216HW,2013-05-21 18:56:00,
2013-05-21 12:01:00,50.4,46.6,29.32,North,0,0.0,0.0,87,0.00,,,0.21,WUHU216HW,2013-05-21 19:01:00,
2013-05-21 12:06:00,50.4,46.9,29.32,North,0,0.0,0.0,88,0.00,,,0.21,WUHU216HW,2013-05-21 19:06:00,
2013-05-21 12:11:00,50.2,46.5,29.32,North,0,0.0,0.0,87,0.01,,,0.23,WUHU216HW,2013-05-21 19:11:00,
2013-05-21 12:16:00,50.2,46.5,29.32,North,0,0.0,0.0,87,0.01,,,0.23,WUHU216HW,2013-05-21 19:16:00,
2013-05-21 12:21:00,50.4,46.9,29.32,North,0,0.0,0.0,88,0.02,,,0.23,WUHU216HW,2013-05-21 19:21:00,
2013-05-21 12:26:00,50.4,46.9,29.32,North,0,0.0,0.0,88,0.02,,,0.23,WUHU216HW,2013-05-21 19:26:00,
2013-05-21 12:31:00,50.8,47.6,29.32,North,0,0.0,0.0,89,0.02,,,0.23,WUHU216HW,2013-05-21 19:31:00,
2013-05-21 12:36:00,51.3,48.2,29.32,North,0,0.0,0.0,89,0.02,,,0.23,WUHU216HW,2013-05-21 19:36:00,
2013-05-21 12:41:00,51.5,48.6,29.32,North,0,0.0,0.0,90,0.02,,,0.23,WUHU216HW,2013-05-21 19:41:00,
2013-05-21 12:46:00,51.5,48.3,29.32,North,0,0.0,0.0,89,0.02,,,0.23,WUHU216HW,2013-05-21 19:46:00,
2013-05-21 12:51:00,51.5,48.0,29.32,North,0,0.0,0.0,88,0.02,,,0.23,WUHU216HW,2013-05-21 19:51:00,
2013-05-21 12:56:00,51.3,48.2,29.32,North,0,0.0,0.0,89,0.02,,,0.23,WUHU216HW,2013-05-21 19:56:00,
2013-05-21 13:01:00,51.1,48.0,29.32,North,0,0.0,0.0,89,0.02,,,0.23,WUHU216HW,2013-05-21 20:01:00,
2013-05-21 13:06:00,51.1,48.0,29.32,North,0,0.0,0.0,89,0.02,,,0.23,WUHU216HW,2013-05-21 20:06:00,
2013-05-21 13:11:00,51.3,48.2,29.32,North,0,0.0,0.0,89,0.01,,,0.23,WUHU216HW,2013-05-21 20:11:00,
2013-05-21 13:16:00,51.5,48.3,29.31,North,0,0.0,0.0,89,0.00,,,0.23,WUHU216HW,2013-05-21 20:16:00,
2013-05-21 13:21:00,51.5,48.0,29.32,North,0,0.0,0.0,88,0.00,,,0.23,WUHU216HW,2013-05-21 20:21:00,
2013-05-21 13:26:00,51.5,48.3,29.32,North,0,0.0,0.0,89,0.00,,,0.23,WUHU216HW,2013-05-21 20:26:00,
2013-05-21 13:31:00,51.3,47.8,29.32,North,0,0.0,0.0,88,0.00,,,0.23,WUHU216HW,2013-05-21 20:31:00,
2013-05-21 13:36:00,51.1,48.0,29.33,North,0,0.0,0.0,89,0.01,,,0.24,WUHU216HW,2013-05-21 20:36:00,
2013-05-21 13:41:00,51.3,47.8,29.33,North,0,0.0,0.0,88,0.02,,,0.26,WUHU216HW,2013-05-21 20:41:00,
2013-05-21 13:46:00,51.3,47.8,29.33,North,0,0.0,0.0,88,0.02,,,0.26,WUHU216HW,2013-05-21 20:46:00,
2013-05-21 13:51:00,51.1,47.6,29.32,North,0,0.0,0.0,88,0.02,,,0.26,WUHU216HW,2013-05-21 20:51:00,
2013-05-21 13:56:00,50.9,47.4,29.32,North,0,0.0,0.0,88,0.02,,,0.26,WUHU216HW,2013-05-21 20:56:00,
2013-05-21 14:01:00,50.9,47.4,29.32,North,0,0.0,0.0,88,0.02,,,0.26,WUHU216HW,2013-05-21 21:01:00,
2013-05-21 14:06:00,51.1,47.6,29.33,North,0,0.0,0.0,88,0.02,,,0.26,WUHU216HW,2013-05-21 21:06:00,
2013-05-21 14:11:00,51.1,48.0,29.33,North,0,0.0,0.0,89,0.02,,,0.26,WUHU216HW,2013-05-21 21:11:00,
2013-05-21 14:16:00,50.8,47.6,29.33,North,0,0.0,0.0,89,0.02,,,0.26,WUHU216HW,2013-05-21 21:16:00,
2013-05-21 14:21:00,50.6,47.1,29.33,North,0,0.0,0.0,88,0.02,,,0.26,WUHU216HW,2013-05-21 21:21:00,
2013-05-21 14:26:00,50.6,47.1,29.32,North,0,0.0,0.0,88,0.02,,,0.26,WUHU216HW,2013-05-21 21:26:00,
2013-05-21 14:31:00,50.8,47.3,29.33,North,0,0.0,0.0,88,0.02,,,0.26,WUHU216HW,2013-05-21 21:31:00,
2013-05-21 14:36:00,50.8,47.6,29.33,North,0,0.0,0.0,89,0.01,,,0.26,WUHU216HW,2013-05-21 21:36:00,
2013-05-21 14:41:00,50.9,48.1,29.32,North,0,0.0,0.0,90,0.00,,,0.26,WUHU216HW,2013-05-21 21:41:00,
2013-05-21 14:46:00,51.1,48.0,29.32,North,0,0.0,0.0,89,0.00,,,0.26,WUHU216HW,2013-05-21 21:46:00,
2013-05-21 14:51:00,51.3,48.2,29.32,North,0,0.0,0.0,89,0.00,,,0.26,WUHU216HW,2013-05-21 21:51:00,
2013-05-21 14:56:00,51.3,48.2,29.33,North,0,0.0,0.0,89,0.00,,,0.26,WUHU216HW,2013-05-21 21:56:00,
2013-05-21 15:01:00,51.1,48.0,29.33,North,0,0.0,0.0,89,0.00,,,0.26,WUHU216HW,2013-05-21 22:01:00,
2013-05-21 15:06:00,51.3,48.2,29.32,North,0,0.0,0.0,89,0.00,,,0.26,WUHU216HW,2013-05-21 22:06:00,
2013-05-21 15:11:00,51.5,48.3,29.32,North,0,0.0,0.0,89,0.00,,,0.26,WUHU216HW,2013-05-21 22:11:00,
2013-05-21 15:16:00,52.2,49.1,29.32,North,0,0.0,0.0,89,0.00,,,0.26,WUHU216HW,2013-05-21 22:16:00,
2013-05-21 15:21:00,52.7,50.1,29.32,North,0,0.0,0.0,91,0.00,,,0.26,WUHU216HW,2013-05-21 22:21:00,
2013-05-21 15:26:00,53.1,50.2,29.32,North,0,0.0,0.0,90,0.00,,,0.26,WUHU216HW,2013-05-21 22:26:00,
2013-05-21 15:31:00,53.3,50.1,29.32,North,0,0.0,0.0,89,0.00,,,0.26,WUHU216HW,2013-05-21 22:31:00,
2013-05-21 15:36:00,53.3,49.5,29.32,North,0,0.0,0.0,87,0.00,,,0.26,WUHU216HW,2013-05-21 22:36:00,
2013-05-21 15:41:00,53.1,49.6,29.32,North,0,0.0,0.0,88,0.00,,,0.26,WUHU216HW,2013-05-21 22:41:00,
2013-05-21 15:46:00,52.7,49.0,29.32,North,0,0.0,0.0,87,0.00,,,0.26,WUHU216HW,2013-05-21 22:46:00,
2013-05-21 15:51:00,52.9,49.2,29.32,North,0,0.0,0.0,87,0.00,,,0.26,WUHU216HW,2013-05-21 22:51:00,
2013-05-21 15:56:00,52.7,49.0,29.32,North,0,0.0,0.0,87,0.00,,,0.26,WUHU216HW,2013-05-21 22:56:00,
2013-05-21 16:01:00,52.7,49.2,29.32,North,0,0.0,0.0,88,0.00,,,0.26,WUHU216HW,2013-05-21 23:01:00,
2013-05-21 16:06:00,52.9,49.4,29.32,North,0,0.0,0.0,88,0.00,,,0.26,WUHU216HW,2013-05-21 23:06:00,
2013-05-21 16:11:00,53.3,49.8,29.32,North,0,0.0,0.0,88,0.00,,,0.26,WUHU216HW,2013-05-21 23:11:00,
2013-05-21 16:16:00,53.8,50.3,29.32,North,0,0.0,0.0,88,0.00,,,0.26,WUHU216HW,2013-05-21 23:16:00,
2013-05-21 16:21:00,53.6,49.5,29.32,North,0,0.0,0.0,86,0.00,,,0.26,WUHU216HW,2013-05-21 23:21:00,
2013-05-21 16:26:00,53.5,49.1,29.32,North,0,0.0,0.0,85,0.00,,,0.26,WUHU216HW,2013-05-21 23:26:00,
2013-05-21 16:31:00,53.5,49.3,29.32,North,0,0.0,0.0,86,0.00,,,0.26,WUHU216HW,2013-05-21 23:31:00,
2013-05-21 16:36:00,53.5,49.1,29.32,North,0,0.0,0.0,85,0.00,,,0.26,WUHU216HW,2013-05-21 23:36:00,
2013-05-21 16:41:00,53.5,49.1,29.32,North,0,0.0,0.0,85,0.00,,,0.26,WUHU216HW,2013-05-21 23:41:00,
2013-05-21 16:46:00,53.6,49.5,29.32,North,0,0.0,0.0,86,0.00,,,0.26,WUHU216HW,2013-05-21 23:46:00,
2013-05-21 16:51:00,53.5,49.1,29.32,North,0,0.0,0.0,85,0.00,,,0.26,WUHU216HW,2013-05-21 23:51:00,
2013-05-21 16:56:00,53.1,48.7,29.32,North,0,0.0,0.0,85,0.00,,,0.26,WUHU216HW,2013-05-21 23:56:00,
2013-05-21 17:01:00,52.9,48.8,29.32,North,0,0.0,0.0,86,0.00,,,0.26,WUHU216HW,2013-05-22 00:01:00,
2013-05-21 17:06:00,52.6,48.2,29.32,North,0,0.0,0.0,85,0.00,,,0.26,WUHU216HW,2013-05-22 00:06:00,
2013-05-21 17:11:00,52.4,48.2,29.32,North,0,0.0,0.0,86,0.00,,,0.26,WUHU216HW,2013-05-22 00:11:00,
2013-05-21 17:16:00,52.2,48.1,29.32,North,0,0.0,0.0,86,0.00,,,0.26,WUHU216HW,2013-05-22 00:16:00,
2013-05-21 17:21:00,52.0,47.9,29.32,North,0,0.0,0.0,86,0.00,,,0.26,WUHU216HW,2013-05-22 00:21:00,
2013-05-21 17:26:00,51.8,47.7,29.32,North,0,0.0,0.0,86,0.00,,,0.26,WUHU216HW,2013-05-22 00:26:00,
2013-05-21 17:31:00,51.7,47.9,29.33,North,0,0.0,0.0,87,0.00,,,0.26,WUHU216HW,2013-05-22 00:31:00,
2013-05-21 17:36:00,51.5,47.7,29.33,North,0,0.0,0.0,87,0.00,,,0.26,WUHU216HW,2013-05-22 00:36:00,
2013-05-21 17:41:00,51.5,47.7,29.33,North,0,0.0,0.0,87,0.00,,,0.26,WUHU216HW,2013-05-22 00:41:00,
2013-05-21 17:46:00,51.1,48.0,29.32,North,0,0.0,0.0,89,0.00,,,0.26,WUHU216HW,2013-05-22 00:46:00,
2013-05-21 17:51:00,50.8,47.6,29.32,North,0,0.0,0.0,89,0.00,,,0.26,WUHU216HW,2013-05-22 00:51:00,
2013-05-21 17:56:00,50.9,48.1,29.32,North,0,0.0,0.0,90,0.00,,,0.26,WUHU216HW,2013-05-22 00:56:00,
2013-05-21 18:01:00,51.5,48.6,29.32,North,0,0.0,0.0,90,0.00,,,0.26,WUHU216HW,2013-05-22 01:01:00,
2013-05-21 18:06:00,51.8,49.5,29.32,North,0,0.0,0.0,92,0.00,,,0.26,WUHU216HW,2013-05-22 01:06:00,
2013-05-21 18:11:00,52.2,49.6,29.32,North,0,0.0,0.0,91,0.00,,,0.26,WUHU216HW,2013-05-22 01:11:00,
2013-05-21 18:16:00,52.2,48.4,29.33,North,0,0.0,0.0,87,0.00,,,0.26,WUHU216HW,2013-05-22 01:16:00,
2013-05-21 18:21:00,52.2,49.1,29.33,North,0,0.0,0.0,89,0.00,,,0.26,WUHU216HW,2013-05-22 01:21:00,
2013-05-21 18:26:00,52.2,49.1,29.33,North,0,0.0,0.0,89,0.00,,,0.26,WUHU216HW,2013-05-22 01:26:00,
2013-05-21 18:31:00,52.2,48.7,29.33,North,0,0.0,0.0,88,0.00,,,0.26,WUHU216HW,2013-05-22 01:31:00,
2013-05-21 18:35:00,52.2,48.7,29.33,North,0,0.0,0.0,88,0.00,,,0.26,WUHU216HW,2013-05-22 01:35:00,
2013-05-21 18:58:00,51.8,48.3,29.34,North,0,0.0,0.0,88,0.00,,,0.26,WUHU216HW,2013-05-22 01:58:00,
2013-05-21 19:03:00,51.8,48.7,29.34,North,0,0.0,0.0,89,0.00,,,0.26,WUHU216HW,2013-05-22 02:03:00,
2013-05-21 19:08:00,51.8,48.7,29.34,North,0,0.0,0.0,89,0.00,,,0.26,WUHU216HW,2013-05-22 02:08:00,
2013-05-21 19:14:00,51.7,48.5,29.34,North,0,0.0,0.0,89,0.00,,,0.26,WUHU216HW,2013-05-22 02:14:00,
2013-05-21 19:19:00,51.3,48.2,29.34,North,0,0.0,0.0,89,0.00,,,0.26,WUHU216HW,2013-05-22 02:19:00,
2013-05-21 19:24:00,51.1,48.0,29.34,North,0,0.0,0.0,89,0.00,,,0.26,WUHU216HW,2013-05-22 02:24:00,
2013-05-21 19:29:00,50.9,47.8,29.34,North,0,0.0,0.0,89,0.00,,,0.26,WUHU216HW,2013-05-22 02:29:00,
2013-05-21 19:34:00,50.8,47.9,29.34,North,0,0.0,0.0,90,0.00,,,0.26,WUHU216HW,2013-05-22 02:34:00,
2013-05-21 19:39:00,50.6,47.7,29.34,North,0,0.0,0.0,90,0.00,,,0.26,WUHU216HW,2013-05-22 02:39:00,
2013-05-21 19:43:00,50.4,47.5,29.34,North,0,0.0,0.0,90,0.00,,,0.26,WUHU216HW,2013-05-22 02:43:00,
2013-05-21 19:48:00,50.4,47.5,29.35,North,0,0.0,0.0,90,0.00,,,0.26,WUHU216HW,2013-05-22 02:48:00,
2013-05-21 19:53:00,50.4,47.5,29.35,North,0,0.0,0.0,90,0.00,,,0.26,WUHU216HW,2013-05-22 02:53:00,
2013-05-21 19:58:00,50.4,47.5,29.35,North,0,0.0,0.0,90,0.00,,,0.26,WUHU216HW,2013-05-22 02:58:00,
2013-05-21 20:03:00,50.4,47.5,29.35,North,0,0.0,0.0,90,0.00,,,0.26,WUHU216HW,2013-05-22 03:03:00,
2013-05-21 20:08:00,50.2,47.1,29.35,North,0,0.0,0.0,89,0.00,,,0.26,WUHU216HW,2013-05-22 03:08:00,
2013-05-21 20:13:00,50.0,46.9,29.35,North,0,0.0,0.0,89,0.00,,,0.26,WUHU216HW,2013-05-22 03:13:00,
2013-05-21 20:18:00,49.9,46.7,29.35,North,0,0.0,0.0,89,0.00,,,0.26,WUHU216HW,2013-05-22 03:18:00,
2013-05-21 20:23:00,49.7,46.5,29.35,North,0,0.0,0.0,89,0.00,,,0.26,WUHU216HW,2013-05-22 03:23:00,
2013-05-21 20:28:00,49.7,46.5,29.36,North,0,0.0,0.0,89,0.00,,,0.26,WUHU216HW,2013-05-22 03:28:00,
2013-05-21 20:33:00,49.5,46.4,29.36,North,0,0.0,0.0,89,0.00,,,0.26,WUHU216HW,2013-05-22 03:33:00,
2013-05-21 20:38:00,49.3,46.2,29.36,North,0,0.0,0.0,89,0.00,,,0.26,WUHU216HW,2013-05-22 03:38:00,
2013-05-21 20:43:00,49.3,46.2,29.36,North,0,0.0,0.0,89,0.00,,,0.26,WUHU216HW,2013-05-22 03:43:00,
2013-05-21 20:48:00,49.3,46.2,29.36,North,0,0.0,0.0,89,0.00,,,0.26,WUHU216HW,2013-05-22 03:48:00,
2013-05-21 20:53:00,49.3,46.2,29.36,North,0,0.0,0.0,89,0.00,,,0.26,WUHU216HW,2013-05-22 03:53:00,
2013-05-21 20:58:00,49.3,46.2,29.36,North,0,0.0,0.0,89,0.00,,,0.26,WUHU216HW,2013-05-22 03:58:00,
2013-05-21 21:01:00,49.3,46.2,29.36,North,0,0.0,0.0,89,0.00,,,0.26,WUHU216HW,2013-05-22 04:01:00,
2013-05-21 21:06:00,49.1,46.1,29.36,North,0,0.0,0.0,89,0.00,,,0.26,WUHU216HW,2013-05-22 04:06:00,
2013-05-21 21:11:00,49.1,46.1,29.37,North,0,0.0,0.0,89,0.00,,,0.26,WUHU216HW,2013-05-22 04:11:00,
2013-05-21 21:16:00,49.1,46.1,29.37,North,0,0.0,0.0,89,0.00,,,0.26,WUHU216HW,2013-05-22 04:16:00,
2013-05-21 21:21:00,49.1,46.1,29.37,North,0,0.0,0.0,89,0.00,,,0.26,WUHU216HW,2013-05-22 04:21:00,
2013-05-21 21:26:00,49.1,45.7,29.37,North,0,0.0,0.0,88,0.00,,,0.26,WUHU216HW,2013-05-22 04:26:00,
2013-05-21 21:31:00,49.1,45.7,29.37,North,0,0.0,0.0,88,0.00,,,0.26,WUHU216HW,2013-05-22 04:31:00,
2013-05-21 21:36:00,49.1,46.1,29.37,North,0,0.0,0.0,89,0.00,,,0.26,WUHU216HW,2013-05-22 04:36:00,
2013-05-21 21:41:00,49.0,45.5,29.37,North,0,0.0,0.0,88,0.00,,,0.26,WUHU216HW,2013-05-22 04:41:00,
2013-05-21 21:46:00,48.8,45.7,29.37,North,0,0.0,0.0,89,0.00,,,0.26,WUHU216HW,2013-05-22 04:46:00,
2013-05-21 21:51:00,48.6,45.5,29.37,North,0,0.0,0.0,89,0.00,,,0.26,WUHU216HW,2013-05-22 04:51:00,
2013-05-21 21:56:00,48.6,45.5,29.37,North,0,0.0,0.0,89,0.00,,,0.26,WUHU216HW,2013-05-22 04:56:00,
2013-05-21 22:01:00,48.6,45.9,29.37,North,0,0.0,0.0,90,0.00,,,0.26,WUHU216HW,2013-05-22 05:01:00,
2013-05-21 22:06:00,48.2,45.2,29.37,North,0,0.0,0.0,89,0.00,,,0.26,WUHU216HW,2013-05-22 05:06:00,
2013-05-21 22:11:00,48.4,45.7,29.37,North,0,0.0,0.0,90,0.00,,,0.26,WUHU216HW,2013-05-22 05:11:00,
2013-05-21 22:16:00,48.4,45.7,29.37,North,0,0.0,0.0,90,0.00,,,0.26,WUHU216HW,2013-05-22 05:16:00,
2013-05-21 22:21:00,48.6,45.9,29.37,North,0,0.0,0.0,90,0.00,,,0.26,WUHU216HW,2013-05-22 05:21:00,
2013-05-21 22:26:00,48.6,45.9,29.37,North,0,0.0,0.0,90,0.00,,,0.26,WUHU216HW,2013-05-22 05:26:00,
2013-05-21 22:31:00,48.6,45.9,29.37,North,0,0.0,0.0,90,0.00,,,0.26,WUHU216HW,2013-05-22 05:31:00,
2013-05-21 22:36:00,48.6,45.5,29.37,North,0,0.0,0.0,89,0.00,,,0.26,WUHU216HW,2013-05-22 05:36:00,
2013-05-21 22:41:00,48.6,45.5,29.37,North,0,0.0,0.0,89,0.00,,,0.26,WUHU216HW,2013-05-22 05:41:00,
2013-05-21 22:46:00,48.6,45.5,29.37,North,0,0.0,0.0,89,0.00,,,0.26,WUHU216HW,2013-05-22 05:46:00,
2013-05-21 22:51:00,48.4,45.4,29.37,North,0,0.0,0.0,89,0.00,,,0.26,WUHU216HW,2013-05-22 05:51:00,
2013-05-21 22:56:00,48.4,45.4,29.37,North,0,0.0,0.0,89,0.00,,,0.26,WUHU216HW,2013-05-22 05:56:00,
2013-05-21 23:01:00,48.2,45.5,29.38,North,0,0.0,0.0,90,0.00,,,0.26,WUHU216HW,2013-05-22 06:01:00,
2013-05-21 23:06:00,48.2,45.5,29.37,North,0,0.0,0.0,90,0.00,,,0.26,WUHU216HW,2013-05-22 06:06:00,
2013-05-21 23:11:00,48.4,45.7,29.38,North,0,0.0,0.0,90,0.00,,,0.26,WUHU216HW,2013-05-22 06:11:00,
2013-05-21 23:16:00,48.4,45.7,29.38,North,0,0.0,0.0,90,0.00,,,0.26,WUHU216HW,2013-05-22 06:16:00,
2013-05-21 23:21:00,48.6,45.9,29.38,North,0,0.0,0.0,90,0.00,,,0.26,WUHU216HW,2013-05-22 06:21:00,
2013-05-21 23:26:00,48.6,45.9,29.38,North,0,0.0,0.0,90,0.00,,,0.26,WUHU216HW,2013-05-22 06:26:00,
2013-05-21 23:31:00,48.4,45.7,29.38,North,0,0.0,0.0,90,0.00,,,0.26,WUHU216HW,2013-05-22 06:31:00,
2013-05-21 23:36:00,48.4,45.7,29.38,North,0,0.0,0.0,90,0.00,,,0.26,WUHU216HW,2013-05-22 06:36:00,
2013-05-21 23:41:00,48.2,45.5,29.38,North,0,0.0,0.0,90,0.00,,,0.26,WUHU216HW,2013-05-22 06:41:00,
2013-05-21 23:46:00,48.2,45.5,29.38,North,0,0.0,0.0,90,0.00,,,0.26,WUHU216HW,2013-05-22 06:46:00,
2013-05-21 23:51:00,48.2,45.5,29.38,North,0,0.0,0.0,90,0.00,,,0.26,WUHU216HW,2013-05-22 06:51:00,
2013-05-21 23:56:00,48.2,45.5,29.38,North,0,0.0,0.0,90,0.00,,,0.26,WUHU216HW,2013-05-22 06:56:00,